Location: Newark
(45.9456°N, 15.4064°E)
Time: 02:04:37
(UTC+00:00)

Vanguard 3 - Pass Details

Date: 31 January 2020
Orbit: 508 x 3263 km, 33.3° (Epoch: 25 February)

Event Time Altitude Azimuth Distance (km) Brightness Sun altitude
Rises 21:47:12 0° 277° (W) 7,070 12.3 -56.4°
Reaches altitude 10° 21:55:07 10° 260° (W) 5,674 11.5 -57.3°
Enters shadow 22:00:49 15° 241° (WSW) 4,874 11.0 -57.8°
Maximum altitude 22:02:59 15° 231° (SW) 4,661 - -58.0°
Drops below altitude 10° 22:09:28 10° 201° (SSW) 4,499 - -58.6°
Sets 22:14:31 0° 180° (S) 4,944 - -59.0°
